Precipitable_Water
1.47 1.43 1.39 1.43 1.49 1.48 1.48 1.42 1.39 1.35 1.35 1.34 1.30 1.29 1.29 1.29 1.24 1.16 1.11 1.10 1.07 1.02 0.99 0.95 0.90 0.85 0.82 0.80 0.78 0.77 0.76 0.75 0.74 0.74 0.70 0.68 0.66 0.64 0.62 0.61 0.61 0.59
1.45 1.43 1.44 1.49 1.49 1.51 1.48 1.44 1.39 1.35 1.33 1.32 1.31 1.29 1.28 1.24 1.18 1.13 1.09 1.07 1.04 1.00 0.97 0.93 0.87 0.82 0.79 0.78 0.77 0.76 0.75 0.75 0.72 0.73 0.69 0.66 0.65 0.64 0.62 0.61 0.59 0.59
1.42 1.42 1.47 1.48 1.44 1.44 1.44 1.43 1.39 1.36 1.34 1.32 1.30 1.28 1.26 1.21 1.14 1.11 1.09 1.05 1.00 0.97 0.95 0.92 0.86 0.81 0.79 0.78 0.78 0.77 0.75 0.74 0.71 0.71 0.69 0.66 0.65 0.63 0.61 0.60 0.58 0.57
1.42 1.47 1.49 1.47 1.42 1.42 1.42 1.39 1.36 1.34 1.33 1.30 1.28 1.27 1.22 1.15 1.11 1.08 1.06 1.04 0.99 0.96 0.94 0.91 0.85 0.81 0.80 0.79 0.79 0.78 0.78 0.77 0.75 0.73 0.69 0.69 0.67 0.65 0.62 0.61 0.59 0.59
1.43 1.44 1.48 1.48 1.45 1.44 1.42 1.37 1.32 1.31 1.30 1.29 1.27 1.21 1.15 1.10 1.08 1.06 1.05 1.03 1.00 0.96 0.94 0.90 0.85 0.82 0.81 0.81 0.81 0.80 0.81 0.79 0.79 0.78 0.74 0.71 0.69 0.66 0.64 0.62 0.59 0.57
1.46 1.47 1.48 1.48 1.46 1.43 1.40 1.35 1.33 1.30 1.28 1.24 1.21 1.17 1.12 1.10 1.07 1.05 1.04 1.02 1.01 0.97 0.93 0.89 0.85 0.83 0.83 0.82 0.83 0.83 0.83 0.82 0.82 0.79 0.73 0.69 0.66 0.64 0.62 0.59 0.56 0.52
1.41 1.42 1.44 1.46 1.43 1.41 1.37 1.33 1.31 1.28 1.25 1.22 1.19 1.13 1.10 1.07 1.05 1.05 1.04 1.02 1.00 0.95 0.91 0.88 0.85 0.83 0.83 0.84 0.84 0.83 0.84 0.82 0.78 0.74 0.69 0.66 0.62 0.60 0.58 0.54 0.50 0.46
1.44 1.45 1.46 1.43 1.40 1.37 1.33 1.31 1.27 1.24 1.22 1.19 1.14 1.11 1.08 1.06 1.05 1.05 1.03 1.01 0.99 0.95 0.92 0.89 0.86 0.85 0.85 0.86 0.84 0.82 0.80 0.78 0.74 0.71 0.67 0.62 0.59 0.55 0.52 0.49 0.46 0.43
1.42 1.42 1.40 1.37 1.33 1.32 1.29 1.26 1.23 1.20 1.19 1.16 1.12 1.08 1.08 1.06 1.05 1.03 1.01 1.00 0.97 0.94 0.91 0.87 0.86 0.85 0.86 0.85 0.83 0.81 0.77 0.75 0.73 0.69 0.63 0.59 0.54 0.50 0.47 0.46 0.43 0.40
1.35 1.37 1.35 1.31 1.27 1.25 1.23 1.20 1.17 1.17 1.17 1.13 1.10 1.07 1.05 1.05 1.04 1.01 0.99 0.97 0.94 0.92 0.89 0.87 0.86 0.86 0.85 0.84 0.82 0.79 0.76 0.73 0.70 0.65 0.61 0.55 0.50 0.47 0.44 0.43 0.40 0.37
1.29 1.28 1.28 1.23 1.20 1.18 1.16 1.15 1.15 1.14 1.13 1.09 1.06 1.04 1.03 1.01 1.00 0.99 0.96 0.94 0.92 0.90 0.89 0.87 0.87 0.86 0.84 0.83 0.81 0.79 0.75 0.71 0.66 0.61 0.55 0.49 0.46 0.44 0.43 0.40 0.38 0.36
1.28 1.26 1.22 1.19 1.18 1.18 1.16 1.14 1.12 1.10 1.09 1.07 1.04 1.01 0.98 0.97 0.95 0.94 0.93 0.91 0.91 0.90 0.89 0.88 0.88 0.86 0.84 0.81 0.78 0.75 0.71 0.66 0.60 0.53 0.48 0.45 0.43 0.41 0.39 0.38 0.37 0.36
1.27 1.23 1.21 1.19 1.18 1.16 1.14 1.12 1.11 1.10 1.08 1.04 1.01 0.97 0.94 0.92 0.92 0.90 0.91 0.91 0.90 0.91 0.92 0.92 0.90 0.87 0.82 0.77 0.73 0.69 0.64 0.57 0.51 0.46 0.43 0.41 0.39 0.38 0.37 0.37 0.37 0.35
1.24 1.24 1.20 1.17 1.15 1.15 1.16 1.16 1.13 1.09 1.04 1.01 0.99 0.96 0.93 0.90 0.89 0.90 0.92 0.93 0.95 0.95 0.94 0.93 0.90 0.83 0.77 0.71 0.67 0.62 0.56 0.49 0.45 0.41 0.39 0.36 0.35 0.35 0.35 0.34 0.34 0.33
1.22 1.20 1.16 1.15 1.15 1.17 1.17 1.14 1.10 1.06 1.04 1.02 0.99 0.94 0.92 0.92 0.93 0.94 0.95 0.95 0.95 0.93 0.91 0.87 0.80 0.73 0.69 0.65 0.60 0.54 0.49 0.44 0.41 0.37 0.35 0.33 0.33 0.33 0.33 0.31 0.30 0.29
1.21 1.18 1.16 1.18 1.18 1.15 1.13 1.10 1.07 1.06 1.03 0.99 0.96 0.94 0.94 0.95 0.95 0.96 0.94 0.93 0.91 0.88 0.84 0.78 0.72 0.68 0.64 0.58 0.54 0.48 0.43 0.39 0.36 0.35 0.34 0.33 0.32 0.31 0.29 0.28 0.26 0.26
1.20 1.19 1.20 1.19 1.16 1.13 1.10 1.07 1.06 1.03 1.00 0.98 0.97 0.96 0.96 0.96 0.95 0.94 0.93 0.90 0.87 0.83 0.77 0.70 0.65 0.62 0.57 0.51 0.46 0.42 0.38 0.36 0.34 0.33 0.33 0.32 0.31 0.28 0.25 0.24 0.24 0.24
1.23 1.19 1.17 1.15 1.14 1.12 1.09 1.07 1.04 1.01 0.99 0.97 0.96 0.95 0.96 0.96 0.94 0.92 0.89 0.86 0.83 0.77 0.69 0.63 0.58 0.54 0.49 0.44 0.41 0.38 0.37 0.35 0.34 0.32 0.32 0.30 0.27 0.24 0.23 0.22 0.22 0.22
1.16 1.13 1.12 1.15 1.12 1.05 1.02 1.02 1.02 1.00 0.97 0.95 0.94 0.95 0.94 0.92 0.90 0.87 0.85 0.83 0.77 0.69 0.61 0.56 0.51 0.47 0.43 0.40 0.38 0.37 0.36 0.35 0.34 0.33 0.29 0.26 0.23 0.22 0.21 0.21 0.20 0.20
1.09 1.05 1.03 1.02 1.02 1.01 0.99 0.98 0.95 0.94 0.93 0.93 0.93 0.91 0.89 0.88 0.87 0.85 0.82 0.76 0.69 0.60 0.54 0.49 0.45 0.42 0.40 0.38 0.37 0.37 0.36 0.35 0.32 0.29 0.25 0.23 0.22 0.21 0.21 0.20 0.20 0.19
1.04 1.00 0.96 0.96 0.98 0.99 0.97 0.95 0.93 0.93 0.92 0.91 0.89 0.87 0.85 0.85 0.84 0.81 0.76 0.68 0.61 0.54 0.48 0.43 0.41 0.40 0.38 0.38 0.38 0.37 0.36 0.32 0.28 0.25 0.23 0.22 0.22 0.22 0.22 0.21 0.21 0.20
1.03 0.98 0.95 0.97 0.97 0.95 0.93 0.92 0.91 0.90 0.87 0.87 0.85 0.85 0.86 0.84 0.81 0.76 0.68 0.60 0.54 0.48 0.42 0.39 0.39 0.39 0.39 0.38 0.38 0.37 0.32 0.27 0.24 0.22 0.21 0.21 0.21 0.22 0.22 0.22 0.22 0.20
1.04 1.01 0.97 0.96 0.95 0.93 0.92 0.90 0.88 0.87 0.86 0.85 0.82 0.81 0.79 0.76 0.72 0.68 0.63 0.56 0.50 0.44 0.40 0.39 0.39 0.40 0.40 0.39 0.36 0.31 0.26 0.24 0.22 0.21 0.20 0.20 0.20 0.21 0.22 0.22 0.23 0.21
1.05 1.01 0.98 0.96 0.94 0.92 0.89 0.87 0.85 0.83 0.82 0.82 0.77 0.75 0.73 0.72 0.68 0.62 0.58 0.52 0.47 0.43 0.43 0.42 0.42 0.42 0.39 0.34 0.29 0.27 0.25 0.23 0.22 0.20 0.20 0.20 0.20 0.21 0.21 0.21 0.22 0.21
1.04 1.02 1.00 0.97 0.94 0.91 0.88 0.83 0.82 0.81 0.80 0.78 0.74 0.71 0.70 0.68 0.64 0.57 0.52 0.48 0.46 0.46 0.48 0.46 0.44 0.39 0.34 0.28 0.26 0.25 0.24 0.23 0.22 0.20 0.19 0.19 0.20 0.20 0.21 0.20 0.20 0.20
1.04 1.02 1.02 0.98 0.93 0.89 0.85 0.83 0.82 0.79 0.74 0.70 0.67 0.67 0.64 0.62 0.58 0.53 0.47 0.46 0.49 0.50 0.49 0.45 0.39 0.34 0.31 0.27 0.25 0.24 0.24 0.23 0.22 0.20 0.19 0.19 0.19 0.19 0.18 0.19 0.19 0.19
Wind_Speed
18 17 17 16 16 15 14 14 14 13 13 13 12 12 11 10 10 9 9 8 8 8 8 8 8 8 9 9 9 10 10 11 11 12 12 13 14 15 16 17 17 18
18 17 17 16 15 15 14 13 13 13 12 12 12 11 10 10 9 9 8 8 8 8 8 8 8 8 9 9 10 10 11 11 12 12 13 14 15 16 16 17 18 19
18 17 17 16 15 15 14 14 13 13 12 12 11 11 10 10 9 9 8 8 8 8 8 8 8 9 9 9 10 11 11 12 12 13 14 15 16 16 17 18 18 19
18 17 16 16 15 14 14 14 13 13 13 12 11 11 10 10 10 9 9 8 9 9 9 8 9 9 9 10 10 11 12 12 13 14 15 16 17 17 18 18 18 19
17 17 16 16 15 14 14 14 13 13 13 12 12 11 11 10 10 10 9 9 9 9 9 9 9 9 10 10 11 12 12 13 14 15 16 16 17 17 17 18 18 19
17 17 16 15 15 14 14 14 13 13 13 12 12 11 11 11 10 10 10 9 9 9 9 9 10 10 10 11 12 12 13 14 15 15 16 16 16 17 17 18 18 19
16 16 15 14 14 14 14 14 13 13 13 12 12 11 11 11 10 10 10 10 10 10 10 10 10 10 11 12 12 13 14 14 15 15 15 16 16 16 17 18 19 20
15 15 14 14 14 15 14 14 13 12 12 12 12 11 11 11 11 10 10 10 10 10 10 10 10 11 12 12 13 13 14 14 15 15 15 15 16 16 17 18 19 19
15 15 14 14 14 14 14 13 12 12 12 12 12 12 11 11 11 11 11 10 10 10 10 10 11 12 12 13 13 14 14 14 14 14 15 15 15 16 17 18 18 19
15 15 14 14 14 13 13 13 13 13 13 12 12 12 12 11 11 11 11 11 11 11 11 11 12 12 13 14 14 13 13 13 13 14 14 15 15 16 17 17 18 18
15 14 13 13 13 13 13 13 13 13 13 13 12 12 12 12 12 12 11 11 10 11 11 12 12 13 13 14 13 12 12 13 13 13 14 14 15 15 16 17 17 18
15 14 14 14 14 13 13 12 13 13 13 13 13 13 13 12 12 12 11 11 10 11 12 12 13 14 13 12 12 11 12 12 13 13 13 14 14 15 16 16 17 18
15 14 14 14 13 13 13 13 13 13 13 13 13 13 12 12 12 11 11 11 11 11 12 13 14 14 12 11 11 11 11 12 12 12 13 13 14 15 16 16 17 18
14 14 14 13 13 13 13 13 13 13 13 13 13 12 12 12 11 11 10 10 11 11 11 12 11 11 11 10 10 11 11 11 11 12 12 13 14 15 15 16 17 18
14 14 13 13 13 13 13 13 13 13 12 12 12 12 11 11 11 11 10 10 11 11 11 10 10 10 10 10 10 10 10 11 11 12 12 13 14 15 15 16 17 17
14 14 14 14 14 14 13 13 13 12 12 12 12 11 11 11 11 11 11 11 10 10 10 10 9 9 8 8 8 9 10 10 11 11 12 13 14 14 15 15 16 16
15 15 14 14 14 14 14 13 13 12 12 11 11 11 11 11 11 11 11 11 10 10 9 9 8 8 7 7 8 8 9 10 10 11 12 13 13 14 14 15 15 16
14 14 14 14 14 14 14 13 13 12 12 11 11 11 11 11 11 11 11 11 10 9 9 8 8 7 7 7 8 8 9 10 10 11 12 12 13 13 14 14 15 16
13 14 14 14 14 14 13 13 12 12 11 11 11 11 11 11 11 11 11 10 9 9 8 8 7 7 7 7 7 8 9 10 10 11 11 12 12 13 13 14 15 16
13 13 13 13 13 13 12 12 11 11 10 10 10 11 11 11 11 11 10 9 9 8 8 8 7 7 7 7 7 8 8 9 10 10 11 11 12 12 13 14 15 16
14 13 13 12 13 12 12 11 11 10 10 10 10 10 10 10 10 10 9 9 8 8 8 8 7 6 6 6 7 7 8 9 10 10 11 11 12 12 13 14 15 16
14 13 13 13 13 13 12 11 11 10 10 10 9 9 10 9 9 9 9 8 8 8 8 7 7 6 6 6 6 7 8 9 10 10 11 11 12 12 13 14 15 16
14 14 14 14 13 13 12 11 11 10 10 9 9 9 9 9 9 9 9 9 8 8 8 7 6 6 6 6 6 7 8 9 9 10 10 11 12 12 13 14 15 16
15 15 15 14 14 13 12 11 11 11 10 10 10 10 10 10 9 9 9 9 9 8 8 7 6 6 6 6 6 7 8 9 9 10 10 11 12 13 14 15 16 17
16 16 16 15 14 13 12 12 11 11 10 10 10 11 10 10 10 9 9 9 8 8 7 7 6 6 6 6 6 7 8 9 9 10 10 11 12 13 14 15 16 17
16 17 16 15 14 13 12 11 11 10 10 10 10 11 11 10 10 9 9 8 8 8 7 7 6 5 5 6 6 7 8 9 9 10 10 11 12 13 14 15 16 17
Wind_Direction
221 220 221 222 222 223 221 219 220 221 223 224 225 226 229 234 239 245 253 260 264 268 271 273 275 277 280 285 289 292 294 296 298 299 302 305 306 308 310 310 311 311
218 218 220 221 220 220 218 216 217 218 219 220 222 224 227 231 236 244 253 259 264 269 271 272 274 278 282 287 291 292 294 296 298 300 303 306 307 309 310 311 311 312
215 217 218 219 217 215 214 213 215 216 216 217 220 223 226 230 237 246 255 261 266 270 271 271 274 279 284 289 291 293 294 296 298 300 304 307 308 309 310 310 312 313
213 214 215 217 215 213 213 212 213 214 215 216 218 222 226 232 240 249 256 263 269 270 270 271 275 280 286 289 291 292 294 297 298 301 305 307 308 309 310 311 312 314
210 211 213 214 212 211 211 210 210 213 214 215 218 224 229 237 245 252 259 265 269 270 269 272 277 282 286 288 290 292 294 297 300 303 306 307 308 309 310 311 313 315
209 209 210 211 210 209 209 209 210 213 214 217 222 229 234 241 248 255 261 266 269 269 270 274 279 284 287 290 292 294 297 299 301 304 307 308 309 310 311 312 314 316
207 207 206 207 207 206 207 208 210 212 216 221 227 232 238 243 249 256 262 266 268 270 273 277 281 285 290 293 295 297 299 301 303 305 307 309 310 311 312 314 316 318
205 204 204 205 205 204 206 209 212 215 220 226 229 234 240 245 250 256 262 265 268 272 275 280 284 288 292 294 296 298 300 302 303 306 308 309 310 312 314 316 318 319
205 202 201 204 204 204 208 212 216 220 224 228 231 235 241 247 253 257 261 265 269 273 278 282 287 291 293 296 297 299 301 302 304 306 308 309 311 314 316 318 319 321
202 198 198 203 205 208 212 215 218 222 226 231 233 238 244 249 254 257 260 264 269 274 279 283 288 292 295 297 298 299 301 303 305 307 308 311 313 316 317 318 320 322
197 197 199 204 206 210 213 215 220 224 229 234 238 242 247 251 254 257 260 265 269 274 279 283 287 291 295 297 297 298 301 304 306 308 311 314 315 317 318 319 321 323
195 199 203 204 207 211 215 220 225 230 235 239 242 246 249 252 255 257 261 265 269 274 279 283 286 289 292 294 295 298 301 304 308 311 313 315 315 317 319 321 323 325
197 201 204 206 211 216 222 226 231 235 239 243 246 248 250 252 254 257 262 266 270 276 283 285 286 286 287 289 293 298 301 305 309 312 314 315 316 318 320 323 325 326
202 205 207 212 217 221 225 230 235 239 242 244 246 247 248 250 251 254 262 269 274 281 286 286 285 284 284 286 292 298 302 307 310 312 313 315 317 320 323 325 327 328
208 210 213 217 219 222 226 232 237 239 240 241 243 244 245 246 248 253 262 272 279 283 284 283 281 282 283 286 292 298 303 307 309 311 314 316 319 322 325 327 329 331
214 216 218 219 220 223 227 232 235 236 236 237 239 241 242 245 249 256 265 275 279 279 280 279 279 279 282 287 294 299 302 305 308 312 315 318 321 324 327 329 331 333
217 219 219 221 224 227 228 230 233 233 233 234 237 240 243 248 252 257 265 272 274 274 274 274 275 277 282 287 294 299 302 305 310 314 317 321 324 327 328 331 334 336
218 221 223 226 230 230 229 229 231 232 234 235 237 240 243 246 249 253 261 265 266 268 270 270 271 275 280 287 294 299 303 307 312 316 320 323 326 329 331 334 336 337
221 225 228 230 231 232 230 229 229 233 236 237 237 239 240 242 246 252 257 259 261 264 265 266 270 273 280 288 295 301 307 310 314 318 321 325 328 331 334 337 338 339
225 227 228 228 227 227 226 225 226 229 232 234 236 238 239 241 245 249 251 255 259 261 261 264 270 273 279 288 296 304 310 313 315 319 323 326 330 334 336 338 339 340
226 227 225 221 219 219 220 222 225 227 229 234 238 239 238 237 239 242 246 251 256 258 259 265 270 271 277 287 297 305 311 314 317 320 324 327 332 335 337 339 340 340
224 223 219 215 214 215 217 220 223 226 230 234 237 237 234 232 236 241 245 248 251 256 259 262 265 266 272 284 295 304 310 314 317 321 325 329 333 335 337 339 340 341
223 221 216 214 214 215 214 216 220 226 231 235 236 234 230 231 236 241 245 247 250 254 255 255 258 263 270 281 293 303 309 313 317 322 326 329 332 334 336 338 341 342
223 219 215 214 213 211 211 216 222 228 232 235 236 232 229 232 237 241 246 249 250 249 249 250 255 262 269 281 294 304 309 313 318 322 325 328 331 334 335 337 341 344
222 216 213 211 210 210 215 221 226 230 233 233 233 232 230 234 239 242 245 247 246 245 245 248 255 263 272 283 295 304 310 314 317 320 324 326 329 333 335 337 340 343
221 212 208 208 210 215 222 227 229 232 232 230 230 232 233 236 239 241 241 242 241 242 244 250 257 267 276 284 293 303 310 314 316 318 321 324 328 332 334 336 339 340